Temperature
22 23 25 26 26 26 25 23 23 23 23 23 23 23 24 25 24 24 24 24 25 24 24 24 24 24 24 23 23 23 22 22 22 21 21 20 20 20 19 19 19 19 18 18
21 23 24 25 25 26 26 25 24 24 23 23 23 24 24 24 23 23 23 24 24 24 24 24 24 24 23 23 23 22 22 22 21 21 20 20 20 19 19 19 19 18 18 18
19 21 23 23 24 25 25 24 24 23 23 22 22 22 23 23 23 23 24 24 24 24 24 24 24 24 23 23 23 22 22 22 21 21 20 20 19 19 19 19 19 18 18 18
17 20 21 21 23 24 24 23 23 23 22 22 22 23 23 24 24 24 24 24 24 24 24 24 24 23 23 23 23 22 22 21 21 20 20 20 19 19 19 19 18 18 17 17
16 18 20 22 23 24 23 22 22 22 22 22 22 22 22 22 23 24 24 24 24 24 24 24 24 23 23 22 22 22 21 21 21 20 20 20 19 19 18 18 18 17 17 17
16 18 19 20 22 24 23 21 22 21 21 21 21 19 20 21 22 23 23 24 23 23 23 23 23 23 22 22 21 21 21 21 20 20 20 19 19 18 18 18 18 17 16 16
16 17 18 19 21 22 21 20 21 21 21 21 20 20 21 21 22 22 23 23 23 23 23 22 22 22 21 21 21 21 21 20 20 19 19 19 18 18 18 17 17 16 16 16
15 16 17 18 20 19 18 19 20 20 21 21 20 20 20 21 21 21 21 22 22 22 22 21 21 21 21 20 20 20 20 20 19 19 18 18 18 17 17 17 16 16 16 15
15 16 17 19 19 19 20 19 19 20 20 20 19 19 19 20 20 20 21 21 21 21 21 20 20 20 20 20 19 19 19 18 18 18 18 18 17 17 17 16 16 15 15 15
14 15 17 18 19 19 20 19 19 19 19 19 19 18 19 19 19 20 19 19 20 20 19 19 19 19 19 19 19 18 18 18 18 17 17 17 16 16 16 15 15 15 15 15
13 14 15 17 17 17 18 18 18 18 18 18 18 18 18 18 18 18 18 19 19 19 19 18 18 18 18 18 18 18 18 17 17 17 16 16 16 15 15 15 15 15 14 14
13 14 13 15 16 16 17 17 17 17 17 18 18 18 18 18 18 18 18 18 18 18 18 18 18 18 17 17 17 17 17 17 16 16 16 15 15 15 15 14 14 14 14 14
15 15 15 15 15 16 15 16 16 17 17 17 17 17 17 17 17 17 17 17 17 17 17 17 17 17 17 17 17 16 16 16 16 15 15 15 15 14 14 14 14 14 13 13
15 15 15 15 15 15 15 15 16 16 16 17 16 16 16 16 16 16 16 16 16 16 16 16 16 16 16 16 16 16 15 15 15 15 15 15 14 14 14 14 13 13 13 12
14 15 14 14 14 14 14 15 15 15 15 16 16 16 16 16 15 15 15 15 15 15 15 15 15 15 15 15 15 15 15 15 15 15 14 14 14 14 13 13 12 12 12 12
14 14 14 14 14 14 14 14 14 14 15 15 15 15 15 15 15 15 15 15 15 15 15 15 15 15 15 15 15 14 14 14 14 14 14 14 13 13 13 12 12 12 11 11
14 13 13 13 13 14 14 14 14 14 14 14 14 15 14 14 14 14 14 14 14 14 14 14 14 14 14 14 14 14 14 14 14 13 13 13 13 13 12 12 12 11 11 11
14 14 14 14 14 13 14 14 13 13 14 13 14 14 14 14 14 14 14 13 13 13 13 13 13 13 13 13 14 13 13 13 13 13 13 13 12 12 12 11 11 11 10 10
13 13 14 14 14 14 13 13 13 13 13 13 13 13 13 13 13 13 13 13 13 13 13 13 13 13 13 13 13 13 13 12 12 12 12 12 12 12 11 11 11 10 10 10
13 13 13 13 13 13 13 12 12 13 13 13 13 13 13 13 12 12 12 12 12 12 12 12 12 12 12 12 12 12 12 12 12 12 12 11 11 11 11 11 10 10 10 9
13 13 13 12 12 12 12 12 12 12 12 12 12 12 12 12 12 12 12 12 12 12 12 12 12 12 12 12 11 11 11 11 11 11 11 11 11 11 10 10 10 9 9 9
12 12 12 12 12 12 12 12 12 12 12 12 12 12 12 12 12 12 12 12 12 11 11 11 11 11 11 11 11 11 11 11 11 11 10 10 10 10 10 9 9 9 9 8
12 12 12 12 12 12 11 11 11 11 11 11 11 11 11 11 11 11 11 11 11 11 11 11 11 11 11 11 11 11 11 10 10 10 10 10 9 9 9 9 8 8 8 8
11 11 11 11 11 11 11 11 11 11 11 11 11 11 11 11 11 11 11 11 11 11 10 10 10 10 10 10 10 10 10 10 10 10 9 9 9 9 9 8 8 8 8 8
11 11 11 11 11 10 10 10 10 11 11 11 11 11 11 11 11 11 11 11 10 10 10 10 10 10 10 10 10 9 9 9 9 9 9 9 9 9 8 8 8 8 7 7
10 10 10 10 10 10 10 10 10 10 10 10 10 10 10 10 10 10 10 10 10 10 10 10 10 10 9 9 9 9 9 9 9 9 9 8 8 8 8 8 7 7 7 7
10 10 10 10 10 10 10 10 10 10 10 10 10 10 10 10 10 10 10 10 10 10 10 9 9 9 9 9 9 9 9 8 8 8 8 8 8 7 7 7 7 7 6 6
Wind_Speed
4 5 3 3 5 3 3 7 7 8 7 7 7 8 8 9 10 10 10 10 10 9 7 8 8 7 8 9 9 10 10 10 10 8 8 7 6 5 5 4 5 4 3 2
4 5 4 4 5 4 3 3 4 4 4 5 5 5 7 9 11 10 10 10 11 11 10 10 10 9 8 8 9 10 11 10 9 8 7 7 6 6 5 4 4 4 3 3
3 6 5 4 3 1 2 2 3 4 6 2 3 5 8 10 11 11 10 9 10 9 10 10 10 9 9 9 9 9 9 9 8 8 7 6 7 6 6 5 5 5 4 3
1 3 5 8 4 0 0 2 0 1 3 4 5 4 5 7 9 8 7 8 8 8 7 7 7 7 7 8 9 10 9 9 8 8 7 5 5 6 5 5 5 4 4 3
2 2 6 7 5 3 2 5 4 1 1 3 5 6 4 2 3 7 7 6 6 6 6 6 7 8 8 7 8 8 9 9 9 9 8 8 7 5 4 4 4 4 3 3
3 2 6 6 7 5 1 4 5 2 4 3 5 4 3 2 2 4 4 5 5 4 5 5 5 7 8 7 7 7 8 8 9 9 9 8 7 6 4 4 4 4 3 3
4 5 6 5 8 6 1 6 6 1 3 2 2 5 6 3 3 4 4 5 5 6 5 4 4 7 7 6 6 5 5 7 7 8 8 7 6 5 4 4 5 4 4 3
3 4 7 6 5 1 5 5 3 3 2 1 3 5 4 4 4 5 5 5 6 6 4 2 3 6 6 4 4 4 5 6 7 7 6 6 6 5 4 5 5 4 4 2
5 7 6 3 2 4 2 2 3 2 1 4 5 4 5 5 5 5 5 5 5 6 5 3 3 5 6 3 3 5 6 5 5 5 5 5 6 5 4 4 4 3 3 3
2 4 4 3 3 3 3 2 3 1 3 4 5 5 5 5 5 5 5 4 5 6 5 3 2 4 5 4 5 6 7 6 6 6 5 4 4 4 4 3 4 3 3 3
3 5 7 7 7 7 6 5 5 2 2 3 6 6 5 4 4 4 4 4 5 5 4 3 3 4 4 4 5 6 6 6 5 5 6 5 4 3 3 2 3 4 4 3
5 5 2 6 7 8 7 5 3 1 2 2 3 5 6 4 3 4 4 4 5 4 3 3 3 4 3 4 5 6 5 5 5 5 5 5 5 4 6 4 4 4 4 4
4 4 3 4 6 7 7 6 3 1 1 2 2 4 5 4 3 3 4 3 4 4 3 3 3 4 3 3 5 5 5 5 4 4 5 5 5 6 4 4 6 6 5 5
3 2 2 3 3 6 7 6 3 3 2 3 3 3 5 5 4 4 3 3 3 4 4 3 3 3 2 3 4 4 5 5 5 5 5 6 6 5 5 5 3 1 2 3
2 1 2 1 2 4 4 4 4 4 3 2 3 3 5 6 5 4 3 3 4 5 4 3 3 1 2 3 4 4 4 3 4 4 4 5 5 5 5 5 5 3 2 2
2 1 0 1 2 3 3 3 2 2 1 1 2 2 3 4 4 3 3 4 4 3 2 3 2 1 2 3 4 3 3 4 4 4 4 4 5 5 5 5 5 4 4 3
2 2 2 1 2 3 2 1 1 1 0 1 1 2 3 4 4 3 2 3 3 2 1 2 2 1 2 3 3 3 3 3 5 4 4 4 5 5 5 5 5 4 3 4
4 5 5 4 3 2 2 2 1 1 1 1 1 3 4 4 3 2 2 3 3 3 1 1 1 2 2 2 2 2 3 3 3 4 4 4 4 4 5 5 5 5 3 3
1 2 2 2 2 2 0 1 1 1 1 2 2 3 2 3 3 3 3 4 4 2 1 1 3 3 3 3 3 3 4 4 3 3 3 5 4 4 4 4 4 4 4 4
3 2 2 2 2 1 1 1 1 1 1 2 3 2 2 2 2 2 3 3 1 1 1 2 3 3 2 3 4 3 4 4 4 4 4 4 4 4 4 4 4 4 4 4
3 3 3 3 2 2 2 2 1 1 1 2 3 2 1 1 2 2 3 2 1 1 3 4 3 3 3 4 5 4 4 5 4 4 4 4 4 4 4 5 4 4 4 3
2 2 3 3 3 3 2 2 2 2 2 2 2 2 3 2 2 2 1 1 1 2 3 3 2 3 5 5 4 4 5 5 4 4 4 5 5 5 4 4 4 4 4 3
2 1 1 2 2 2 3 3 2 2 1 1 1 2 2 2 2 3 1 1 1 4 3 2 3 6 7 5 4 4 5 4 4 4 4 4 4 4 4 4 3 4 4 3
1 1 1 1 2 2 2 2 1 1 0 0 1 2 3 2 1 2 3 4 4 5 3 3 5 6 6 4 4 4 4 4 3 4 4 4 4 4 4 4 4 3 3 4
1 1 1 1 1 1 1 1 2 2 2 1 1 1 1 3 3 3 3 4 5 5 3 3 5 5 5 4 4 3 3 3 4 4 4 4 4 4 4 4 4 4 4 4
0 1 1 1 1 1 1 1 1 1 1 1 2 1 1 1 3 3 3 4 5 5 3 2 3 4 4 4 4 4 4 4 5 5 4 4 5 4 4 4 5 4 4 4
1 1 0 1 1 1 1 1 0 0 1 1 1 1 2 2 2 3 3 3 3 3 3 3 3 3 3 3 4 4 5 5 5 4 4 4 4 4 5 5 5 4 5 5
Wind_Direction
239 249 250 273 291 286 211 196 193 225 214 224 194 175 170 158 152 152 160 163 165 167 177 174 173 183 196 192 184 178 176 183 190 188 182 176 175 177 176 176 177 165 157 157
337 340 339 319 310 302 281 232 204 190 238 238 200 159 154 151 150 156 166 177 178 175 182 181 178 185 195 197 186 177 180 186 182 176 176 177 173 166 171 175 166 153 157 159
303 319 1 298 274 292 309 305 189 205 235 214 135 162 169 161 154 157 163 172 181 181 183 183 181 179 184 187 179 177 182 179 174 170 171 180 173 168 175 179 168 160 166 161
263 12 240 243 270 71 353 318 344 217 224 171 164 172 164 152 154 162 163 160 164 173 177 175 173 168 167 167 166 168 168 167 165 166 163 161 163 175 178 171 167 169 174 168
137 224 274 293 316 340 307 300 319 62 78 97 110 80 65 60 139 162 165 163 162 163 162 164 167 166 154 158 161 162 167 171 167 162 157 160 170 172 171 164 161 166 165 161
158 193 237 266 303 309 67 283 313 101 129 141 104 101 219 270 100 118 123 136 138 126 120 134 158 151 148 153 154 167 175 173 166 162 162 165 168 169 162 155 156 153 145 155
196 222 253 281 316 8 82 256 310 300 181 173 182 184 189 168 113 118 110 102 110 115 118 145 155 149 149 150 164 175 165 159 160 162 160 158 159 160 153 151 148 149 152 159
176 209 251 311 7 38 248 283 303 308 270 130 114 118 124 124 115 104 99 99 102 105 105 111 131 136 135 154 167 148 139 143 151 154 154 151 149 153 157 156 156 161 159 158
199 221 242 276 243 248 241 296 303 338 15 116 116 123 125 128 125 115 112 112 107 106 98 89 102 130 133 147 135 127 125 129 131 136 141 143 146 149 148 150 153 159 163 168
294 270 293 322 340 337 354 333 313 267 136 126 128 127 117 120 125 117 111 111 103 104 99 92 103 111 126 139 138 136 132 136 136 132 126 121 121 130 138 150 156 157 165 172
286 301 337 349 352 343 341 349 349 344 106 123 138 132 126 126 127 124 124 120 115 117 118 117 121 115 128 136 132 130 131 133 133 129 130 120 110 108 133 151 175 167 175 172
244 257 253 291 318 340 334 326 334 44 66 68 117 127 122 126 134 135 134 131 127 128 128 133 134 126 128 139 135 135 137 142 146 139 135 139 133 98 56 74 79 112 150 151
236 252 243 294 329 346 331 315 340 27 122 103 87 118 118 120 127 120 125 127 132 137 133 135 130 123 128 138 135 138 143 150 151 152 151 156 156 150 135 63 59 72 96 128
259 266 320 338 331 329 321 327 10 26 39 98 102 105 107 109 110 105 109 123 130 123 116 115 115 116 119 126 129 135 147 155 157 164 167 168 168 166 159 153 140 77 60 106
279 266 221 280 336 324 322 348 21 34 46 58 87 110 115 113 111 103 96 100 101 101 109 116 105 97 112 122 127 145 162 165 160 162 162 162 162 160 159 158 153 147 126 87
270 309 111 78 314 310 321 345 7 21 38 109 119 143 131 119 114 111 106 105 105 113 138 129 121 115 94 114 124 132 151 151 147 149 144 145 152 156 160 159 157 160 163 162
199 203 217 237 296 300 305 325 283 279 348 126 168 142 126 119 110 105 104 101 106 115 148 135 137 129 94 105 119 127 129 134 129 129 140 149 152 156 158 158 159 162 177 166
206 199 196 190 200 248 320 6 331 223 180 166 127 111 121 134 142 147 125 99 85 77 87 111 103 93 83 74 87 105 117 122 129 141 149 151 152 153 151 153 158 159 156 149
193 175 175 177 180 180 201 18 336 258 186 134 107 112 125 129 130 127 116 103 104 100 18 43 83 83 71 54 74 97 112 114 112 123 132 130 128 133 140 147 153 156 151 148
67 71 59 50 58 75 90 19 346 300 160 125 114 107 103 113 112 103 99 95 112 164 139 75 66 61 63 51 70 95 107 109 109 112 109 114 119 120 125 132 139 145 145 150
46 49 45 43 48 52 84 97 56 38 51 91 117 133 137 95 91 106 106 86 345 57 88 83 76 73 72 76 77 88 98 103 105 110 113 115 115 115 119 120 121 123 126 129
31 54 61 49 41 24 19 45 50 51 58 67 87 114 113 100 88 91 102 163 185 106 90 82 80 83 89 86 89 93 97 100 101 101 106 113 118 118 118 120 120 118 113 112
8 21 37 35 25 356 12 30 37 44 55 76 112 138 145 156 150 142 169 254 144 115 105 104 104 93 90 90 97 99 103 105 106 106 110 117 120 121 124 123 121 120 117 114
12 24 40 35 36 40 21 350 358 11 7 264 203 178 160 145 139 173 170 160 143 124 115 124 112 99 92 91 97 105 112 113 113 113 110 112 117 121 124 125 123 120 117 113
329 16 51 51 38 357 308 320 338 346 12 24 15 17 157 162 166 170 147 143 146 137 132 138 125 110 95 93 100 105 112 117 118 117 111 114 118 120 120 120 121 119 116 113
311 197 217 211 212 239 268 301 325 323 44 48 28 37 65 103 132 137 133 140 148 145 140 132 120 109 102 103 105 104 103 104 105 106 112 114 111 111 114 116 115 116 116 116
30 35 48 357 303 257 218 189 175 172 150 141 131 108 110 107 108 118 124 124 128 127 128 128 124 119 112 107 106 103 100 100 100 102 105 107 108 109 112 109 109 107 106 106
Height
1496 1490 1486 1486 1485 1485 1492 1498 1506 1502 1498 1490 1484 1484 1484 1485 1487 1489 1492 1495 1497 1500 1503 1505 1508 1511 1512 1515 1517 1519 1521 1523 1524 1525 1526 1527 1528 1529 1530 1530 1530 1530 1530 1530
1496 1488 1485 1485 1482 1481 1484 1486 1490 1490 1491 1481 1480 1480 1482 1482 1485 1488 1491 1494 1496 1498 1500 1502 1503 1505 1508 1512 1514 1516 1518 1519 1521 1522 1524 1525 1525 1526 1527 1528 1528 1528 1528 1528
1509 1495 1490 1497 1485 1483 1484 1483 1484 1491 1487 1479 1480 1479 1479 1480 1482 1485 1487 1490 1493 1494 1497 1498 1500 1501 1504 1507 1510 1513 1514 1515 1517 1519 1521 1522 1523 1523 1524 1524 1525 1525 1525 1525
1512 1504 1511 1496 1478 1477 1480 1480 1478 1479 1478 1477 1477 1476 1476 1478 1479 1481 1483 1486 1489 1491 1492 1493 1496 1498 1500 1502 1505 1508 1509 1511 1512 1515 1517 1519 1519 1520 1521 1521 1522 1522 1523 1522
1515 1515 1505 1488 1478 1477 1481 1482 1475 1476 1476 1476 1475 1475 1478 1479 1479 1479 1480 1482 1485 1487 1488 1489 1492 1494 1496 1498 1501 1503 1505 1507 1508 1511 1513 1515 1516 1517 1518 1519 1519 1519 1520 1520
1512 1513 1512 1494 1478 1473 1476 1485 1474 1474 1475 1475 1474 1481 1481 1478 1477 1478 1479 1480 1482 1484 1486 1487 1489 1491 1492 1494 1496 1498 1501 1503 1505 1507 1509 1511 1513 1514 1515 1516 1516 1517 1517 1517
1510 1510 1501 1485 1477 1473 1491 1489 1476 1474 1473 1473 1473 1475 1476 1476 1476 1477 1478 1478 1480 1482 1483 1485 1487 1489 1490 1491 1492 1495 1498 1500 1502 1503 1505 1507 1509 1510 1511 1513 1513 1514 1514 1515
1508 1510 1504 1482 1479 1484 1484 1478 1476 1473 1472 1471 1471 1472 1473 1474 1474 1475 1476 1477 1478 1479 1481 1483 1484 1486 1487 1490 1491 1493 1494 1496 1498 1500 1502 1504 1506 1507 1508 1509 1510 1511 1511 1512
1499 1497 1485 1480 1480 1479 1477 1475 1474 1472 1470 1470 1469 1470 1471 1472 1473 1474 1475 1475 1477 1478 1479 1481 1482 1484 1485 1487 1489 1491 1492 1493 1495 1498 1500 1501 1503 1504 1505 1506 1507 1507 1508 1509
1493 1486 1482 1480 1478 1477 1475 1473 1472 1471 1469 1469 1468 1469 1470 1470 1471 1471 1474 1475 1475 1477 1478 1479 1481 1482 1483 1485 1488 1489 1489 1491 1493 1495 1496 1498 1499 1501 1503 1504 1504 1504 1505 1505
1491 1487 1481 1478 1478 1477 1474 1472 1471 1470 1468 1468 1467 1467 1468 1470 1470 1470 1472 1472 1475 1476 1476 1477 1479 1480 1482 1484 1485 1486 1487 1489 1490 1493 1494 1496 1497 1499 1500 1501 1501 1501 1502 1503
1491 1486 1485 1482 1479 1477 1474 1471 1469 1468 1467 1467 1467 1466 1466 1468 1469 1470 1471 1472 1473 1474 1475 1476 1477 1478 1480 1482 1483 1484 1485 1486 1488 1490 1492 1494 1496 1497 1497 1498 1498 1499 1500 1500
1485 1483 1482 1480 1478 1477 1475 1470 1467 1466 1465 1465 1466 1466 1466 1467 1469 1470 1471 1471 1471 1473 1473 1474 1475 1477 1479 1480 1481 1482 1483 1485 1487 1489 1490 1491 1493 1494 1494 1494 1495 1496 1497 1497
1482 1480 1479 1477 1477 1476 1474 1469 1466 1465 1465 1465 1465 1466 1465 1467 1469 1469 1470 1470 1471 1472 1472 1472 1474 1476 1477 1478 1479 1480 1481 1483 1484 1486 1487 1488 1489 1490 1491 1491 1492 1492 1493 1494
1479 1478 1476 1475 1475 1474 1472 1470 1467 1466 1466 1467 1467 1466 1466 1466 1467 1468 1470 1470 1471 1471 1471 1472 1473 1475 1475 1477 1478 1478 1479 1480 1481 1483 1483 1484 1486 1487 1488 1489 1489 1490 1491 1491
1476 1475 1474 1473 1473 1472 1471 1469 1467 1467 1467 1467 1467 1467 1466 1466 1467 1468 1468 1469 1470 1470 1471 1471 1472 1473 1474 1475 1476 1476 1476 1478 1479 1480 1481 1482 1483 1484 1485 1486 1487 1487 1488 1488
1473 1473 1473 1471 1471 1470 1469 1468 1468 1467 1467 1466 1465 1465 1465 1466 1466 1467 1468 1468 1469 1469 1470 1469 1470 1471 1471 1472 1473 1474 1474 1475 1477 1477 1478 1479 1480 1481 1482 1483 1484 1485 1485 1485
1471 1471 1470 1469 1468 1468 1467 1465 1466 1465 1465 1465 1465 1464 1465 1465 1465 1466 1466 1467 1467 1468 1468 1468 1469 1469 1469 1470 1470 1471 1472 1473 1474 1475 1476 1477 1478 1479 1480 1481 1482 1483 1483 1484
1469 1469 1468 1467 1466 1466 1465 1464 1465 1464 1464 1463 1463 1463 1464 1464 1464 1465 1465 1466 1466 1467 1467 1468 1468 1468 1468 1468 1469 1470 1471 1472 1473 1474 1474 1475 1476 1477 1478 1479 1480 1480 1481 1482
1467 1467 1467 1466 1465 1465 1464 1464 1464 1463 1463 1462 1462 1463 1464 1464 1464 1464 1465 1465 1465 1466 1466 1467 1467 1467 1467 1468 1468 1470 1471 1471 1471 1472 1473 1474 1475 1476 1477 1478 1478 1479 1479 1480
1466 1466 1465 1465 1465 1464 1463 1464 1463 1462 1461 1461 1461 1462 1462 1462 1463 1464 1464 1464 1465 1465 1465 1466 1467 1467 1468 1468 1469 1470 1470 1470 1471 1472 1472 1473 1474 1475 1476 1476 1477 1477 1478 1479
1466 1465 1465 1464 1463 1463 1463 1463 1462 1461 1461 1460 1460 1461 1461 1462 1462 1463 1464 1464 1465 1465 1465 1466 1467 1467 1468 1468 1469 1469 1470 1471 1472 1472 1472 1473 1474 1474 1475 1476 1477 1477 1478 1478
1465 1465 1464 1464 1463 1463 1462 1462 1461 1460 1460 1460 1460 1460 1461 1462 1462 1462 1463 1464 1464 1464 1465 1465 1466 1467 1467 1468 1469 1469 1470 1471 1472 1472 1472 1473 1474 1474 1475 1476 1476 1477 1477 1478
1465 1464 1464 1463 1463 1462 1462 1461 1460 1460 1460 1459 1460 1460 1460 1461 1461 1462 1463 1463 1464 1464 1465 1465 1466 1467 1467 1468 1469 1470 1471 1471 1472 1472 1472 1473 1474 1474 1475 1475 1476 1477 1477 1477
1464 1463 1463 1462 1462 1461 1461 1460 1460 1459 1459 1459 1459 1459 1459 1460 1461 1461 1462 1463 1464 1465 1465 1466 1466 1467 1467 1468 1469 1469 1470 1471 1471 1472 1473 1473 1474 1474 1474 1475 1476 1476 1476 1477
1463 1463 1462 1462 1461 1461 1460 1460 1459 1459 1459 1458 1458 1459 1459 1460 1460 1461 1462 1462 1463 1464 1465 1466 1467 1467 1468 1469 1469 1470 1470 1471 1471 1472 1472 1473 1473 1474 1474 1475 1475 1475 1475 1476
1463 1462 1462 1461 1461 1460 1460 1459 1459 1459 1458 1459 1459 1459 1460 1460 1460 1461 1461 1462 1463 1464 1465 1466 1467 1468 1469 1469 1470 1470 1471 1471 1471 1472 1472 1473 1473 1474 1474 1474 1474 1474 1474 1474